Theta_e
313 313 317 319 321 323 325 327 328 327 326 325 326 326 326 326 327 328 328 327 326 329 329 328 330 329 330 330 331 331 331 333 333 332 331 330 331 332 332 332 333 333 333 332
315 314 317 318 319 320 323 325 327 327 326 327 325 325 328 328 328 328 327 326 328 330 331 331 331 330 330 331 332 333 333 334 333 332 331 332 333 331 332 332 333 333 332 331
316 316 314 316 319 320 321 323 325 326 325 325 324 325 327 328 328 327 326 326 325 329 332 333 332 331 331 332 333 333 334 334 333 332 334 334 333 333 332 333 333 333 331 331
315 316 316 315 316 319 321 320 320 320 322 324 323 329 329 329 328 328 327 326 327 331 332 334 333 333 332 332 332 333 334 334 334 334 333 333 332 332 333 332 332 332 331 331
315 315 316 317 316 317 318 318 319 320 321 323 323 326 328 328 328 328 327 326 328 332 333 334 333 332 331 332 332 333 334 333 335 334 333 334 333 333 332 332 332 333 332 331
315 314 315 317 316 316 317 318 320 321 322 326 325 327 329 330 330 329 327 325 330 334 334 333 332 331 331 331 332 333 334 335 335 335 335 334 334 333 332 333 332 333 332 332
316 315 314 315 316 316 317 320 324 326 328 329 327 329 330 328 327 325 325 327 333 334 334 333 333 333 332 331 332 332 334 334 334 334 334 332 333 333 333 332 332 332 332 332
317 318 315 314 315 317 318 321 322 326 331 330 328 330 329 326 326 326 325 325 332 334 334 334 333 333 331 331 332 332 333 333 333 333 332 331 333 332 332 332 332 332 332 333
317 319 316 315 315 317 318 323 322 327 328 326 330 328 325 324 325 324 327 326 332 335 334 334 333 332 331 332 332 332 331 331 332 332 332 332 333 333 332 333 333 333 333 332
317 320 319 316 315 317 320 320 324 324 329 330 326 326 326 326 326 325 328 330 333 335 334 333 333 332 331 332 332 331 330 331 332 332 332 333 333 333 331 332 332 333 333 332
316 318 321 318 316 317 318 321 322 323 324 328 329 326 324 327 325 328 331 332 336 335 334 333 332 331 332 332 332 330 330 331 332 332 333 334 333 332 331 332 332 333 333 332
315 319 323 319 318 318 318 319 322 323 325 324 325 323 327 328 330 330 330 333 336 335 333 332 332 332 332 332 331 329 329 330 331 331 333 334 332 332 332 332 332 332 332 332
313 319 322 321 319 317 319 319 321 322 325 325 324 321 321 328 329 332 334 335 335 334 333 333 332 332 332 332 329 328 329 329 330 330 332 333 333 332 332 332 332 332 332 332
312 317 320 322 320 319 319 318 320 322 323 323 322 320 323 328 329 332 334 334 334 335 334 333 333 332 332 331 328 327 328 328 329 330 331 333 333 333 332 332 332 332 331 331
315 317 318 319 319 318 321 318 318 320 321 322 320 320 320 325 327 330 331 334 334 335 334 334 333 332 332 331 327 327 327 328 328 329 330 333 332 332 332 332 332 332 331 330
315 320 317 319 317 318 320 320 319 319 320 320 320 320 320 321 322 322 331 333 334 335 334 334 333 333 333 330 327 327 326 327 328 329 329 332 332 332 332 332 332 332 331 331
315 317 319 318 317 319 321 320 320 319 319 319 320 321 320 321 323 323 327 331 333 335 334 334 333 333 333 330 327 327 326 326 327 328 329 330 331 331 332 331 331 332 332 331
314 317 317 320 318 323 324 323 320 320 319 319 319 320 321 321 322 323 325 330 333 334 335 335 334 334 332 329 327 326 326 326 326 327 328 329 331 331 332 329 330 332 332 331
312 316 321 321 321 319 323 325 325 322 325 324 325 323 323 323 324 324 324 324 329 334 335 335 333 332 332 329 327 327 326 325 325 326 327 327 330 332 331 329 329 331 332 331
313 313 318 321 324 320 327 323 321 323 328 322 323 324 325 325 324 323 331 331 330 332 335 335 333 332 332 330 328 327 326 325 324 325 326 326 329 332 331 329 328 330 331 332
316 316 317 319 324 326 323 322 321 328 328 322 322 324 325 327 327 328 327 328 329 332 334 334 333 333 333 331 329 327 326 326 324 323 325 326 328 331 333 331 329 329 328 331
316 317 316 317 321 327 320 322 327 322 321 321 322 323 323 324 325 326 327 329 329 331 333 334 334 333 333 331 330 327 326 326 324 324 324 325 326 330 332 331 329 327 328 329
321 319 320 320 324 317 317 318 317 317 319 320 320 321 322 323 325 326 328 331 333 330 333 333 333 333 333 331 330 329 327 326 325 325 324 325 326 327 331 332 329 328 327 325
316 315 318 320 316 315 315 316 315 316 318 318 319 320 321 324 325 327 328 330 333 330 332 332 333 334 334 332 330 329 327 325 325 326 326 326 326 326 329 331 329 327 325 322
311 311 313 318 316 315 316 315 315 315 316 317 318 319 320 322 325 327 329 330 332 330 331 332 333 334 333 332 331 330 329 325 326 326 327 327 326 326 327 329 330 328 327 324
312 313 315 318 315 315 315 313 313 314 315 314 317 319 319 321 324 326 331 332 332 329 330 332 332 333 332 331 331 330 329 327 326 327 327 328 326 326 325 326 328 328 328 326
Wind_Speed
23 20 27 41 34 27 26 29 26 23 18 22 24 25 23 18 20 23 22 21 22 20 18 16 9 6 7 11 16 20 23 24 23 19 17 14 12 10 9 10 11 12 12 12
19 30 47 31 28 29 29 30 29 25 22 24 21 27 26 23 22 23 22 19 20 17 14 10 4 4 9 13 17 21 23 24 21 16 13 9 8 7 7 7 9 10 10 11
34 43 26 32 30 30 32 31 27 30 21 22 22 27 29 25 27 18 17 21 22 16 15 8 5 8 11 15 19 23 24 23 18 14 11 8 5 5 7 7 8 9 8 8
33 36 28 32 34 34 33 27 26 25 22 24 22 25 25 21 19 21 21 20 16 11 6 4 8 10 13 16 20 23 22 19 15 13 10 7 5 6 2 5 5 7 7 7
32 28 36 30 41 28 33 20 23 22 21 25 29 20 22 21 22 24 18 20 13 4 4 7 8 12 16 20 22 22 20 17 14 12 8 7 5 4 4 5 6 8 6 8
29 13 23 40 22 28 21 17 19 19 17 21 24 23 22 20 27 25 18 17 9 8 7 9 12 17 21 22 21 20 18 15 13 11 7 4 5 5 4 4 7 5 5 7
22 30 18 21 28 24 25 21 10 12 14 19 19 17 18 16 13 13 10 10 10 9 11 13 16 16 23 23 21 19 16 14 12 10 6 6 6 5 4 5 4 2 4 7
20 21 31 20 31 24 31 26 13 17 15 16 18 12 16 13 21 23 21 12 9 10 12 15 16 16 22 22 20 17 16 14 12 9 7 7 5 4 3 3 2 3 4 3
19 25 28 22 24 32 26 27 25 13 12 8 14 17 15 19 21 15 12 15 11 11 13 16 18 20 22 21 19 17 15 13 12 9 8 6 4 2 1 1 2 2 2 4
6 10 20 31 24 27 25 24 21 16 19 16 12 12 10 7 11 13 14 14 14 13 16 17 17 19 21 20 18 15 14 14 13 9 7 6 3 2 2 2 2 2 3 5
13 9 15 23 26 27 21 21 21 17 13 16 11 8 9 13 9 11 13 14 14 16 17 18 17 21 21 20 18 15 14 14 13 9 7 5 2 2 3 3 3 3 4 6
7 6 11 27 22 25 28 22 27 13 21 12 10 5 2 6 1 10 12 11 14 17 18 18 18 20 21 20 18 16 15 14 13 10 7 5 3 1 5 4 3 3 4 5
4 9 9 12 23 22 28 24 26 17 15 21 12 2 6 4 5 5 7 12 16 19 19 19 18 17 18 20 18 17 16 14 13 11 9 6 4 2 4 4 4 3 5 7
5 5 14 8 19 11 23 25 24 24 12 12 15 12 7 7 9 8 7 12 16 18 20 19 18 17 19 20 18 17 16 15 13 11 9 8 5 5 5 5 5 6 6 6
4 7 19 19 9 7 13 24 25 25 22 16 12 15 15 8 9 8 4 13 16 18 19 19 19 17 17 19 19 17 17 16 14 12 11 9 8 6 7 6 6 7 8 8
4 1 11 20 15 11 8 10 23 24 22 20 15 17 14 17 15 9 3 11 16 17 18 19 19 19 18 20 20 19 18 17 15 12 12 11 9 7 7 6 6 8 9 9
4 4 5 19 19 10 11 15 15 19 22 19 19 20 15 15 8 9 7 7 15 18 19 20 21 19 19 22 22 21 19 18 16 14 13 12 11 9 7 6 5 8 10 11
8 7 4 8 16 13 7 8 13 13 18 19 19 16 17 12 9 9 9 1 12 16 18 18 18 17 24 23 23 22 20 19 18 15 14 13 13 11 8 7 6 6 10 10
13 10 3 5 12 9 7 9 4 12 9 5 7 9 13 12 14 13 12 9 9 16 15 15 22 26 27 25 25 23 21 21 19 17 15 14 14 12 11 9 7 6 9 9
13 10 6 4 10 18 9 9 5 6 9 8 6 5 6 7 11 8 13 15 6 9 16 15 23 26 27 27 26 24 23 22 21 20 17 15 15 14 12 10 8 7 6 9
8 6 8 6 6 5 11 10 3 11 4 9 8 8 8 8 10 19 16 12 10 9 12 19 25 27 30 30 28 25 24 22 22 20 19 16 15 14 12 11 9 9 7 8
8 6 4 3 4 5 16 3 5 7 6 8 9 10 12 14 15 15 16 13 11 11 13 22 22 26 30 32 30 27 25 24 22 21 21 18 17 16 14 13 11 10 10 10
4 1 2 2 3 3 7 10 9 9 9 9 11 13 13 16 16 14 13 12 10 10 11 20 20 23 30 33 32 28 27 26 24 22 21 20 18 17 16 16 14 12 12 11
6 10 3 5 7 7 7 6 10 12 11 13 12 14 15 15 16 16 13 11 9 10 12 21 22 21 26 32 32 30 28 28 26 24 23 22 21 19 18 18 16 14 13 12
3 6 5 5 6 6 5 8 13 15 15 15 15 14 15 16 16 14 13 11 9 11 14 21 22 23 27 33 33 31 30 30 28 26 24 23 22 22 20 19 18 17 14 12
1 3 4 3 12 6 10 14 16 17 15 17 16 18 16 15 17 17 14 10 9 10 15 17 24 24 27 31 34 33 32 33 31 28 26 25 23 24 21 21 16 15 11 17
Wind_Direction
197 203 214 218 218 234 247 245 240 242 243 252 260 260 260 263 273 279 289 287 288 280 283 281 294 266 192 184 185 182 176 171 169 172 182 200 215 223 237 247 251 248 254 256
189 215 222 218 222 225 236 245 247 253 242 250 249 267 268 262 271 279 275 281 279 289 282 270 247 191 173 170 172 168 167 167 169 172 186 202 209 228 249 253 249 245 248 262
214 220 216 219 221 224 228 235 241 251 261 248 259 266 268 264 258 271 263 265 276 271 279 264 189 170 163 162 163 164 165 164 165 168 172 175 190 233 243 235 237 230 240 243
228 232 217 222 225 219 231 223 244 256 254 251 246 269 265 274 273 262 267 270 257 255 232 192 170 155 157 157 158 157 158 159 161 168 176 190 244 267 233 237 239 234 230 216
222 225 227 219 224 218 237 230 237 240 248 258 249 259 266 261 265 261 261 264 240 234 215 177 163 151 151 150 152 153 153 158 161 168 179 190 231 189 215 235 242 239 227 209
237 214 224 230 217 220 224 221 230 236 242 242 246 252 258 264 261 265 257 250 184 170 148 145 142 147 144 148 151 152 154 158 163 168 173 188 174 208 246 253 259 261 231 205
228 238 235 230 209 202 201 190 196 218 222 241 242 247 251 267 240 258 250 243 156 155 147 146 150 151 148 151 154 153 159 163 166 168 167 167 185 207 244 273 270 255 230 208
223 223 223 209 215 190 195 192 203 214 226 240 223 247 232 242 252 248 250 242 146 163 148 151 153 151 151 154 157 156 165 164 167 166 162 180 189 222 261 266 282 206 200 204
222 233 192 221 213 199 195 211 210 253 229 279 210 230 274 257 254 245 233 213 181 163 152 152 152 155 154 158 159 160 166 163 165 163 172 183 183 220 314 249 228 164 154 154
291 269 222 196 206 205 197 196 202 222 233 226 246 230 237 197 229 229 223 201 177 159 154 154 156 157 158 160 157 161 166 164 164 162 174 175 166 190 183 176 195 145 142 155
280 258 235 184 204 192 199 198 213 211 227 213 229 230 216 243 239 215 194 172 161 164 158 158 158 160 159 160 158 163 167 164 163 167 167 161 142 171 168 155 159 142 153 152
321 278 273 198 202 216 200 208 197 201 199 255 217 217 6 286 29 220 199 154 159 162 158 159 160 161 160 164 161 166 169 167 166 169 161 143 129 156 170 146 120 127 138 135
14 235 233 220 198 206 200 207 195 212 198 208 222 208 235 135 133 138 141 150 155 154 156 160 162 165 166 166 167 168 173 171 166 169 159 142 128 140 149 140 114 114 125 135
231 264 245 194 190 191 208 208 195 209 217 188 212 207 221 161 112 108 127 155 157 161 161 163 164 167 169 168 171 172 177 171 168 170 165 149 137 140 141 137 119 124 118 123
248 262 233 251 289 296 280 210 211 207 218 226 199 220 226 215 112 66 111 163 167 167 168 168 168 170 171 169 174 177 178 173 170 172 168 158 149 143 131 113 109 116 119 118
230 260 268 246 231 246 249 247 215 214 214 224 241 227 243 268 291 295 174 187 182 176 176 173 170 171 173 171 177 178 178 174 172 174 171 166 169 166 149 135 115 127 130 121
277 292 225 236 215 222 246 216 219 220 216 216 221 237 248 246 268 242 243 200 201 187 179 177 176 175 175 174 179 178 177 174 174 176 171 171 174 176 161 153 153 129 128 124
273 293 266 232 197 212 94 44 208 207 215 217 231 239 235 240 270 268 268 215 202 195 186 180 176 175 176 173 179 177 175 175 176 179 174 175 178 172 162 158 142 132 141 134
221 272 274 223 204 199 113 34 348 187 113 17 310 293 291 297 316 281 263 267 224 205 195 185 182 175 173 172 177 177 176 177 179 180 179 180 179 171 162 159 148 148 145 129
203 226 291 267 203 212 53 2 323 283 167 23 345 326 323 310 246 228 15 0 320 219 188 183 178 177 174 173 175 178 178 179 184 182 181 179 179 174 167 161 151 148 145 127
189 211 234 244 258 83 355 335 228 211 77 349 344 335 317 281 284 322 323 321 319 298 204 184 178 180 177 172 173 181 181 183 184 181 179 177 179 176 173 164 157 152 142 118
185 197 183 226 254 191 359 31 317 22 346 349 343 333 319 302 302 298 301 296 286 285 207 185 184 180 177 175 175 182 185 183 182 180 179 177 177 182 174 169 165 159 146 135
214 302 295 328 39 23 354 61 41 8 344 351 336 335 324 312 311 310 300 292 273 251 211 188 189 185 178 179 180 183 184 182 181 181 180 178 178 184 177 176 173 168 168 157
28 3 300 287 47 352 319 23 7 359 344 337 337 331 328 321 318 311 304 293 273 233 207 189 187 190 183 182 184 187 179 181 180 180 180 181 182 183 183 184 182 186 182 180
339 330 328 294 19 359 303 295 327 332 328 333 333 337 333 326 324 318 307 293 277 233 195 193 191 193 193 181 185 184 180 179 180 182 182 182 186 186 185 194 190 196 193 191
21 353 348 330 325 319 289 297 312 319 322 326 328 330 332 333 330 326 314 304 281 237 202 198 195 196 195 189 184 183 184 181 179 181 184 186 187 186 190 192 192 204 197 197